Weather in Plonsk

Poland     52°37′13″N   20°21′55″E
temp.,
°C
wind,
m/s
gust,
m/s
humid.,
%
clouds,
%
prec.,
mm/h
press.,
hPa
HPBL,
m
20 june, sun
sun2023:00+22se397761 0.0 1016209
02:00+20se378225 0.0 1016144
05:00+18se37900 0.0 1015143
08:00+22se57740 0.0 1015489
11:00+26sse56530 0.0 10161191
14:00+28se67450 0.0 10131490
17:00+29s564871 0.0 10131978
20:00+25ese34690 0.0 101167
21 june, mon
mon2123:00+21se48790 0.0 1012158
02:00+19se338886 0.0 101149
05:00+19ese4891100 0.0 1010185
08:00+23se6107189 0.0 1011694
11:00+27se68570 0.0 10101409
14:00+29se56451 0.0 10092015
17:00+29sse454748 0.0 10081623
20:00+24e47710 0.0 1008129
22 june, tue
tue2223:00+22ese3871100 0.0 1009178
02:00+22se3777100 0.0 1008191
05:00+21se358392 0.0 1009137
08:00+23sse357638 0.0 1010417
11:00+28s235926 0.0 10101143
14:00+29wsw3353100 2.2 10101472
17:00+27nw446035 0.4 1009784
20:00+21ese1491100 4.6 1012111
23 june, wed
wed2323:00+19nw2395100 0.8 101368
02:00+18nne2297100 0.8 101442
05:00+17nne349830 0.0 1014108
08:00+21n2288100 0.0 1015388
11:00+25n216814 0.0 1016851
14:00+28nnw215737 0.0 10161460
17:00+28nnw215981 0.1 10161119
20:00+25nnw347639 0.6 101686
24 june, thu
thu2423:00+21ne35905 0.1 101778
02:00+19ne3697100 2.1 1017139
05:00+19ne249726 0.1 101796
08:00+22ne44823 0.7 1017343
11:00+27ne33655 0.0 1016861
14:00+30e335317 0.3 10151584
17:00+30nne115338 0.0 1013839
20:00+25n3678100 0.4 1012113